{"data":{"norad_id":53613,"epoch":"2026-09-20T21:43:42.667680Z","epoch_age_seconds":46387,"freshness":"FRESH","line1":"1 53613U 22104AB  26263.90535495 -.00000552  00000+0 -49171-5 0  9996","line2":"2 53613  53.1604  66.0430 0001204  88.5843 271.5298 15.35394764225269","mean_motion":15.35394764,"eccentricity":0.0001204,"inclination_deg":53.1604,"raan_deg":66.043,"arg_perigee_deg":88.5843,"mean_anomaly_deg":271.5298,"bstar":-4.9171e-6,"rev_number":22526,"period_min":93.786955235442,"perigee_km":458.92490701471,"apogee_km":460.57146976807,"semimajor_km":6837.8851883914,"source":"CELESTRAK","updated_at":"2026-09-21T09:00:32.940163Z"}}